Wind_Speed
31 31 30 28 25 22 21 21 21 20 19 16 14 12 11 12 12 13 15 16 16 16 18 18 17 14 12 11 11 10 8 7 9 11 14 11 7 8 11 10 11 16 19 16 16 18 17 17 16 14 12 10 8 8 8 9 6 5 4 4 4 3 3 0 2 5 7 3 8 7 8 10 10 8 9 10 9 9 9 8 11 8 8 13 19 26 29 28
32 32 30 29 26 23 22 21 21 20 19 17 15 13 12 12 12 13 14 15 16 16 18 18 16 13 10 9 10 8 6 9 12 13 14 13 9 7 11 12 11 19 22 18 19 20 16 15 15 13 10 8 8 8 9 8 7 7 4 4 2 0 5 7 2 11 11 9 9 10 9 8 9 9 7 9 10 10 10 10 11 10 12 18 23 28 30 29
32 32 31 29 27 24 22 21 21 20 19 17 16 14 13 12 13 13 14 15 16 16 17 16 13 11 9 8 8 5 5 10 11 7 3 9 13 10 9 11 14 22 25 20 19 20 16 15 15 13 10 8 7 8 8 6 7 8 5 6 1 0 10 7 1 7 11 11 10 10 8 7 6 8 8 9 11 10 10 10 11 13 15 19 23 26 29 29
33 32 32 30 27 24 22 21 20 19 18 18 17 16 15 13 13 13 14 16 16 16 16 13 9 9 9 7 6 3 6 10 4 5 6 5 12 12 10 12 17 25 27 19 17 18 16 14 15 14 11 8 8 8 9 7 6 6 7 6 3 2 12 1 3 3 4 5 8 10 9 8 7 7 7 8 10 9 9 11 12 15 18 20 22 23 26 27
33 33 32 30 28 24 22 21 19 18 18 18 18 16 16 14 14 14 15 16 16 15 15 11 7 8 8 7 5 1 7 6 4 8 9 9 7 8 9 15 20 25 26 20 17 18 16 14 13 13 10 9 9 9 9 10 8 6 9 7 3 7 9 2 2 3 4 1 5 7 8 10 9 6 6 5 5 2 3 11 13 15 20 21 21 21 22 24
33 33 33 30 27 24 22 20 19 18 17 18 18 17 16 15 14 15 15 16 15 15 14 9 6 7 8 8 4 4 8 1 6 7 10 11 4 6 9 17 22 24 24 20 18 18 16 15 13 12 10 10 11 10 9 11 10 8 9 8 5 8 5 1 2 1 2 2 4 3 2 4 8 7 6 7 7 5 7 9 15 16 19 22 22 21 21 23
33 34 33 31 27 24 22 20 19 18 17 18 19 18 18 16 16 16 16 16 15 14 13 7 5 7 7 7 3 7 9 1 8 8 12 14 5 6 11 19 24 23 22 20 18 17 15 15 14 12 10 10 11 11 11 10 11 10 9 8 5 5 4 3 4 3 3 3 2 3 5 5 5 4 5 9 7 9 7 10 15 17 19 21 21 21 21 22
34 34 34 31 27 24 21 20 19 18 18 19 20 20 20 19 17 16 16 15 14 12 9 6 6 6 6 5 6 8 7 2 7 9 12 13 6 6 15 20 23 23 22 21 19 17 15 16 15 12 10 10 10 11 11 9 10 13 12 10 6 5 6 6 5 5 4 2 2 2 7 6 5 4 5 10 9 9 9 14 14 17 18 19 20 21 21 21
34 34 34 31 27 23 20 19 19 19 19 20 22 23 22 20 17 15 14 13 11 8 5 5 6 6 5 6 8 7 2 6 6 7 8 7 3 9 17 19 22 22 21 20 19 18 14 13 15 13 11 10 10 11 10 9 8 10 13 12 10 8 7 7 7 7 4 2 4 7 6 6 8 7 6 9 9 6 11 15 14 17 18 18 18 20 21 21
34 34 34 31 27 23 20 19 18 19 20 22 24 24 22 18 15 11 9 8 6 3 4 6 6 6 6 7 9 4 5 6 3 5 5 4 5 12 16 16 21 21 19 18 19 19 14 12 14 12 11 10 10 11 10 10 6 4 9 11 13 12 9 8 9 8 5 6 8 8 6 6 8 7 5 5 9 8 12 15 14 15 16 18 18 18 19 20
34 34 34 31 27 23 20 18 17 18 20 23 25 23 18 15 11 8 6 4 2 3 5 7 7 7 8 9 9 2 6 4 2 3 3 3 6 12 13 13 19 19 16 16 17 18 17 14 12 9 9 7 9 11 11 13 10 8 9 9 12 13 12 12 10 9 7 7 9 9 6 5 7 8 5 5 7 8 10 12 14 14 14 16 18 18 17 17
33 34 34 31 27 23 20 18 16 17 21 23 25 21 15 13 10 6 4 2 3 7 8 8 7 6 9 10 5 5 6 2 1 1 1 3 5 10 10 11 16 18 15 14 16 18 18 15 12 11 7 4 8 9 7 11 12 12 11 10 12 13 14 15 14 12 10 9 10 10 6 4 7 8 5 6 8 7 9 11 12 13 13 15 17 17 15 17
33 34 33 30 26 23 20 19 16 17 21 24 24 18 13 12 8 4 4 5 8 9 7 5 4 6 9 5 3 6 5 1 1 2 2 3 5 7 9 10 14 16 15 13 13 16 18 16 13 14 10 5 7 3 4 8 10 12 12 10 11 11 12 15 15 15 14 11 11 11 7 5 9 10 7 6 10 10 11 12 12 12 13 14 15 15 15 17
32 33 33 30 26 22 20 18 16 18 22 25 23 16 12 11 6 3 6 9 7 4 2 1 2 6 8 1 7 5 2 1 3 5 3 4 6 7 9 10 12 15 15 13 12 13 16 17 14 13 12 10 9 5 5 8 9 10 12 9 9 9 9 13 15 16 15 12 14 14 7 3 9 13 13 4 8 13 11 10 12 13 13 14 15 16 16 17
31 32 32 29 25 22 20 18 17 18 21 24 22 14 12 9 3 3 9 9 4 0 2 1 4 7 7 3 6 3 1 2 3 3 3 6 7 7 9 10 13 15 13 12 11 10 13 16 13 10 10 12 12 9 6 8 8 9 10 9 10 9 10 12 15 16 15 12 16 16 6 3 10 12 18 10 8 14 12 11 12 11 14 15 14 15 16 16
30 31 31 28 24 21 19 17 17 19 21 23 19 13 11 8 5 4 9 8 2 0 0 3 5 8 7 2 4 1 1 2 3 3 4 7 7 6 8 10 12 14 11 10 10 10 11 12 10 9 10 10 11 9 7 8 8 9 9 10 11 11 11 10 12 16 16 12 14 15 8 6 10 10 18 18 16 16 14 14 12 10 14 17 14 14 15 16
30 31 31 28 24 21 18 16 17 18 20 21 17 12 11 8 5 7 9 7 2 1 4 7 5 7 5 3 1 2 4 6 5 2 5 6 7 5 8 9 12 13 11 11 10 9 9 9 7 9 10 10 10 9 8 9 9 9 10 10 12 13 12 10 10 14 16 15 14 16 11 7 7 11 17 19 20 18 14 13 11 11 14 15 14 14 15 16
30 30 31 29 25 21 18 15 16 17 18 19 16 12 12 8 6 10 11 6 5 6 7 7 6 6 2 3 1 4 7 5 3 2 4 6 7 7 9 9 10 12 11 10 10 10 9 9 9 9 9 10 10 10 10 11 10 10 11 10 11 14 13 13 11 11 16 18 16 15 12 9 8 10 14 17 19 17 15 13 11 14 16 14 14 15 15 16
30 30 31 30 26 22 18 14 14 16 16 17 16 13 12 9 8 11 12 9 7 5 3 2 3 4 2 4 4 6 5 3 3 3 4 5 8 9 10 9 10 13 11 9 10 12 9 8 10 10 10 12 13 13 13 13 12 12 13 12 12 13 12 14 13 11 15 16 16 16 12 12 12 11 13 17 17 15 15 14 10 14 15 14 13 13 14 16
30 29 29 30 27 23 20 14 12 15 14 18 20 13 7 6 5 5 7 8 3 4 4 2 4 4 2 4 6 7 6 5 5 2 3 6 9 11 10 9 11 12 11 10 11 12 10 10 11 12 14 15 17 17 16 16 14 12 11 13 14 14 12 13 14 12 14 12 14 16 14 14 14 14 17 18 16 15 14 14 14 17 15 13 14 14 15 16
31 30 29 28 27 23 20 15 12 13 12 15 19 8 2 7 5 3 6 5 2 2 3 2 4 4 3 4 7 8 6 3 1 3 3 7 9 9 9 10 11 10 11 12 10 11 11 11 14 16 17 16 16 17 17 17 16 12 10 12 12 13 13 12 14 14 13 9 11 15 16 16 15 14 16 17 15 15 15 17 19 18 15 15 16 16 16 15
32 31 29 28 25 22 19 15 11 10 11 11 10 7 7 8 7 6 7 6 3 2 3 1 3 2 3 2 3 6 7 4 4 5 3 6 9 9 8 9 11 9 12 13 9 10 11 13 16 18 16 15 15 15 17 17 16 12 9 10 10 9 12 12 13 15 13 9 10 15 15 15 16 15 15 15 14 14 16 19 20 18 15 14 15 13 15 15
31 31 30 27 25 22 18 15 10 8 10 8 6 8 7 7 8 7 6 8 3 5 5 3 3 1 2 1 2 6 9 4 1 5 3 6 9 8 7 9 12 11 12 14 11 10 10 12 17 17 14 16 16 14 15 15 13 12 10 10 10 10 10 9 10 14 15 10 9 13 13 13 15 15 15 15 13 14 17 21 18 17 16 14 15 13 14 16
31 31 30 28 24 20 17 15 11 8 7 5 6 9 7 7 9 8 6 8 5 6 4 1 2 2 3 2 3 8 6 2 3 3 2 8 6 4 8 9 12 12 11 15 16 14 11 10 14 18 16 16 17 14 13 12 10 13 14 12 11 12 12 10 10 12 14 12 10 12 11 10 13 15 15 14 14 15 18 21 17 15 16 14 15 16 15 16
30 31 30 28 23 18 17 14 8 6 6 5 5 11 9 8 8 7 6 7 5 6 6 3 4 0 2 2 4 6 4 3 3 2 0 7 6 2 7 8 9 11 12 16 17 14 13 12 11 15 18 17 16 14 14 12 9 11 15 16 15 15 14 13 13 12 11 11 12 13 11 9 12 16 15 13 18 19 16 17 17 15 16 14 14 15 13 14
30 30 29 27 22 18 15 7 5 9 8 2 7 12 11 9 7 5 5 6 4 6 7 5 4 1 0 2 2 3 4 4 2 0 2 3 6 6 6 6 7 10 12 12 11 9 11 14 12 11 15 18 17 14 15 14 10 9 11 15 18 18 18 15 14 13 9 8 11 14 12 9 10 15 16 16 18 20 18 16 16 14 14 14 13 12 10 15
30 29 29 26 19 15 11 7 10 12 7 5 10 13 12 9 6 4 5 6 4 5 6 5 2 1 1 1 4 5 3 1 2 5 2 1 3 5 6 7 7 8 10 8 8 8 10 16 16 13 13 15 15 13 14 14 11 9 8 10 15 16 18 18 15 11 9 9 11 15 14 10 9 12 16 19 19 19 20 17 14 13 15 15 14 14 15 17
30 29 29 23 12 8 8 10 12 9 5 9 12 12 12 7 5 5 6 5 2 4 3 3 3 2 3 2 6 7 4 3 4 4 2 3 5 5 8 10 9 9 9 9 8 7 10 15 17 17 14 12 13 12 12 15 13 10 10 9 9 12 16 17 15 11 9 10 11 14 14 11 10 11 13 18 20 20 21 18 15 16 18 17 16 16 17 17
30 29 26 18 7 4 6 9 10 7 8 10 11 12 10 4 5 5 6 4 3 4 0 2 3 3 5 5 4 4 3 3 4 1 1 7 6 6 8 7 10 11 9 11 11 8 8 12 15 17 13 10 12 12 13 16 13 11 13 11 6 7 11 12 13 11 11 12 12 15 16 11 10 10 11 13 17 18 19 18 18 20 20 18 18 17 15 15
28 27 21 13 5 4 6 8 7 6 9 10 12 12 8 5 5 6 6 3 4 5 1 1 2 1 5 7 6 2 3 3 3 4 5 6 6 7 8 6 8 10 9 11 13 12 12 10 11 14 13 11 12 13 15 17 14 11 13 12 7 7 9 9 9 10 10 12 15 18 19 15 12 10 9 11 14 16 16 16 18 20 21 20 18 17 17 16
27 25 15 6 6 8 9 6 2 7 10 11 13 11 8 5 5 7 4 0 2 4 3 2 1 2 4 6 2 2 3 3 2 6 6 5 7 9 8 7 7 7 8 10 11 13 15 13 10 10 12 12 12 13 15 15 14 12 11 10 9 8 8 8 8 9 10 12 14 18 21 20 15 10 9 12 16 17 15 15 18 19 21 19 18 17 17 16
27 21 8 3 5 7 9 8 9 11 11 12 12 8 6 5 7 7 2 2 2 2 3 3 3 1 2 4 3 1 3 2 1 5 5 4 5 5 4 3 3 5 8 8 9 12 13 14 14 11 11 14 13 11 12 13 13 12 10 9 9 8 7 8 9 9 11 12 12 16 19 18 14 12 12 13 15 17 16 14 15 18 20 19 19 19 15 13
25 16 6 3 6 7 9 10 11 11 10 11 10 6 5 6 5 3 1 1 1 4 3 2 1 1 3 5 2 1 4 3 2 3 4 5 5 3 1 4 6 7 6 5 7 8 9 13 17 15 10 12 15 11 10 11 12 12 11 10 10 8 8 10 9 9 11 12 13 16 16 14 13 14 17 18 15 15 16 17 17 19 19 20 20 19 16 15
21 12 6 6 9 10 9 10 9 10 10 10 8 6 7 8 3 2 1 3 5 4 2 1 2 3 4 4 2 2 4 3 1 4 5 6 7 6 5 1 4 8 8 7 7 7 8 9 14 17 12 12 16 14 11 11 11 12 12 10 11 9 8 9 8 9 10 10 14 17 14 12 11 10 14 19 18 15 15 15 17 18 18 18 19 19 18 18
17 7 5 8 11 10 9 10 9 9 9 7 6 7 7 6 3 2 2 5 4 1 1 0 5 7 5 2 2 2 4 1 2 4 6 5 5 4 3 4 5 5 6 6 6 6 10 8 5 12 14 15 18 17 15 14 11 11 11 12 12 10 9 9 8 10 10 9 11 13 11 10 9 9 12 16 18 19 19 13 13 16 17 17 17 18 17 16
14 5 5 7 8 9 9 8 7 7 8 7 7 7 3 2 5 5 5 4 4 4 3 4 6 7 5 4 4 3 1 3 3 4 5 4 3 2 3 5 6 6 6 5 6 5 9 9 4 5 10 13 16 17 17 16 11 9 12 12 12 12 11 10 10 11 11 11 9 9 10 10 9 10 13 15 16 19 21 16 13 15 17 18 16 15 16 16
14 7 6 5 8 10 8 5 5 6 7 7 6 3 3 5 7 7 5 5 4 4 7 6 2 2 4 3 3 5 1 4 3 3 3 3 2 1 3 3 3 5 8 6 6 5 5 8 7 6 9 10 13 16 18 18 15 11 11 12 12 13 13 10 9 9 10 11 8 9 12 12 10 9 12 16 17 16 19 19 17 15 14 17 17 16 17 18
14 9 5 3 9 10 6 4 5 6 6 7 4 1 4 5 7 7 5 5 4 3 6 6 0 1 4 5 1 4 2 5 1 1 4 3 4 1 1 1 3 4 7 8 6 3 5 8 8 7 9 10 12 14 13 16 21 19 14 9 10 12 12 10 9 9 10 10 8 10 13 11 10 8 10 16 18 16 16 18 20 19 16 15 16 18 20 19
14 9 3 5 9 7 5 5 7 7 6 6 3 2 3 4 6 6 4 3 4 4 5 3 1 1 3 3 5 2 1 4 4 3 3 1 2 2 2 2 2 4 6 7 7 5 5 7 8 8 9 9 10 11 10 12 18 21 18 14 10 10 11 11 9 8 9 9 8 10 11 10 8 8 11 15 18 19 19 17 18 21 20 18 16 16 18 18
11 6 2 10 10 5 5 9 8 6 5 3 3 2 3 3 4 4 4 4 4 3 4 4 1 3 3 0 3 3 1 2 5 4 2 1 0 2 4 3 4 6 8 7 8 7 5 6 7 9 10 10 9 10 12 13 13 14 15 14 12 9 10 12 11 10 10 8 8 9 9 8 8 8 11 14 14 17 20 19 17 18 20 21 20 18 17 18
8 4 4 12 10 5 9 9 5 4 3 1 3 3 4 3 3 3 3 4 5 2 3 6 3 3 5 3 4 3 2 4 6 5 5 3 3 2 3 5 5 7 8 7 7 5 4 6 8 9 9 9 11 11 14 17 15 14 14 15 14 11 11 13 13 13 11 10 9 8 8 8 7 9 12 13 11 11 16 19 18 17 19 19 18 19 18 18
7 3 6 12 11 8 10 5 1 3 2 3 3 4 4 2 2 3 2 1 3 0 1 5 4 2 5 6 5 5 4 7 8 7 7 5 3 1 4 5 6 7 7 8 7 3 4 5 8 8 9 10 12 13 15 17 17 17 14 13 14 14 12 12 12 12 12 12 11 9 9 8 2 3 6 10 12 9 10 14 16 17 19 18 17 18 19 18
3 3 5 9 12 10 8 0 2 2 3 3 1 4 3 2 1 1 1 2 2 1 1 4 2 2 5 5 5 7 7 7 8 8 8 8 3 4 7 7 7 7 7 7 5 4 4 5 7 7 8 11 14 14 14 16 15 14 12 12 14 16 16 13 12 11 11 13 13 9 10 9 3 6 3 7 10 10 8 10 12 13 14 16 18 17 17 17
4 4 3 7 11 9 5 0 2 1 3 2 1 3 2 2 5 5 3 3 3 3 4 5 3 1 4 6 6 8 8 6 7 7 8 8 2 6 5 5 6 8 6 4 4 5 3 6 7 7 8 9 11 11 12 14 13 11 12 14 16 19 21 19 14 12 11 12 13 11 10 9 6 9 4 3 5 7 8 10 11 11 10 12 15 16 15 15
4 4 0 5 7 5 3 4 3 3 4 3 3 3 2 2 4 5 6 4 3 5 5 4 4 4 6 8 7 8 9 7 7 6 6 8 3 0 4 3 3 9 4 7 8 6 5 6 7 8 9 9 9 7 6 7 8 10 14 18 22 23 24 20 13 12 12 10 12 12 9 11 12 10 8 6 6 7 6 5 7 9 9 10 11 11 13 15
3 1 1 2 3 5 5 5 5 2 2 2 2 3 3 2 4 1 5 4 2 5 6 3 3 6 6 7 7 8 8 8 8 7 7 8 6 4 6 4 7 9 3 7 7 7 5 7 9 11 12 11 9 8 8 9 8 9 14 18 21 23 25 20 11 11 12 9 11 14 10 9 13 13 12 12 11 11 9 8 9 6 6 8 7 3 4 9
3 3 4 2 2 3 4 4 5 3 2 1 0 2 3 3 2 2 2 2 2 5 7 3 3 5 4 6 6 6 7 7 7 8 9 9 8 8 7 8 10 7 2 3 7 7 6 8 12 15 16 17 17 17 16 15 13 13 16 18 16 17 22 23 15 13 13 10 11 15 13 11 11 11 11 10 9 11 10 8 7 6 5 4 4 1 1 4
3 3 3 3 2 2 3 4 4 4 4 3 1 1 1 2 3 1 1 2 3 5 4 1 3 5 4 5 6 5 5 6 6 7 8 8 8 8 7 9 11 8 6 8 9 7 7 9 12 15 17 18 19 19 19 17 16 16 17 18 17 16 17 18 18 18 17 13 12 13 15 15 14 8 4 3 1 1 1 2 2 4 6 6 5 2 6 7
3 2 3 3 2 3 4 3 3 3 5 3 2 2 2 2 2 2 1 2 3 3 3 4 3 4 4 5 6 5 5 6 6 5 6 7 8 8 7 8 9 9 9 10 8 6 6 8 11 14 15 17 17 18 19 18 17 18 19 20 19 16 15 15 17 18 20 20 17 16 16 16 15 6 5 6 5 5 6 3 3 5 6 6 5 2 4 5
3 3 3 2 3 3 2 2 2 2 4 1 1 3 3 2 4 4 2 3 4 2 2 5 4 4 6 5 5 6 5 6 8 7 7 8 8 7 7 7 7 7 9 9 7 6 6 7 10 11 12 15 16 17 18 18 19 20 20 20 20 19 18 18 17 16 18 20 20 20 19 14 14 10 2 6 8 5 5 4 2 4 5 5 5 6 5 5
5 4 3 2 2 2 1 3 2 1 3 2 2 3 3 3 4 5 4 3 5 4 3 6 6 5 5 6 7 8 7 7 9 10 9 10 9 8 8 7 7 7 8 8 7 7 8 8 9 9 10 12 14 16 17 18 20 22 22 22 22 20 18 18 17 16 16 18 18 20 17 11 12 12 5 8 9 8 8 5 3 4 6 8 8 8 8 9
5 3 2 3 1 1 2 2 2 0 2 3 3 3 3 2 3 5 4 1 3 4 3 5 7 6 6 7 7 7 8 9 11 11 11 11 12 12 11 11 12 11 9 8 7 7 8 9 8 9 9 11 14 16 16 16 17 17 18 20 21 20 18 18 18 18 18 16 15 15 13 12 11 9 7 8 8 8 7 5 5 5 5 5 6 8 8 9
Wind_Direction
10 8 6 4 2 360 358 355 352 349 348 348 345 340 336 333 331 331 331 329 329 329 330 326 322 323 322 321 311 310 316 291 266 236 231 245 254 240 246 252 228 191 170 181 186 180 186 192 197 198 206 213 219 236 226 215 231 233 220 252 253 300 338 352 245 113 96 166 166 193 193 139 148 151 132 154 162 143 145 137 123 118 114 126 140 143 144 147
9 7 5 4 2 0 357 355 353 350 350 349 346 341 338 334 332 333 331 329 328 330 333 331 331 332 333 326 312 321 321 275 260 249 239 243 251 249 244 239 218 184 177 191 190 185 190 190 190 194 206 218 215 223 231 208 209 233 234 262 235 113 244 229 223 107 128 211 173 186 197 144 154 149 155 169 142 145 152 135 129 118 110 127 141 143 146 151
8 6 5 3 2 360 357 355 353 351 351 349 347 343 338 336 333 333 330 328 327 329 333 334 339 340 345 339 320 335 315 276 255 246 240 238 244 269 264 223 201 183 184 196 191 189 195 190 188 195 207 218 213 214 225 202 208 227 228 261 36 95 249 229 352 105 149 195 168 182 180 126 155 157 181 168 141 165 159 144 145 132 128 134 141 144 149 155
6 5 4 2 360 359 357 355 353 352 352 349 348 343 339 337 334 333 328 326 326 328 331 332 342 348 354 350 338 355 287 272 226 101 51 296 254 263 259 209 190 185 193 206 196 193 200 195 192 200 214 220 213 217 230 216 219 229 231 255 88 228 260 211 44 41 114 161 161 183 159 144 188 174 189 167 149 176 154 150 153 139 139 139 144 149 153 158
4 4 3 1 359 358 357 355 354 353 351 348 346 343 339 335 332 330 323 325 327 325 325 322 334 349 351 349 352 304 267 258 112 65 26 341 275 242 228 197 185 187 201 215 202 197 203 199 197 207 222 230 219 217 231 228 232 252 255 259 146 215 253 98 82 30 31 38 145 177 160 163 187 178 197 154 118 233 173 154 150 143 144 145 151 153 156 162
3 2 1 360 358 356 355 354 354 353 350 346 343 340 338 332 328 322 318 324 325 322 319 310 318 338 342 341 333 252 263 267 71 29 5 355 308 204 203 191 181 187 205 217 206 199 204 200 197 209 221 232 231 225 226 224 233 254 260 253 210 225 255 95 175 145 339 305 127 155 222 187 171 175 195 125 98 282 259 157 140 145 147 148 155 157 162 166
2 1 0 359 356 354 353 352 352 351 347 344 341 338 335 329 323 315 313 320 322 319 310 296 304 322 334 333 295 239 250 246 67 26 358 358 355 190 191 182 177 187 204 212 206 200 203 201 200 211 218 228 237 235 232 226 229 245 260 266 248 231 241 225 207 191 247 279 109 145 222 226 166 187 200 126 130 238 222 139 134 141 146 151 156 159 165 168
2 1 360 358 356 353 352 351 351 348 346 343 339 336 332 327 320 312 311 316 318 313 298 285 296 310 329 313 265 242 231 88 56 24 4 6 4 185 176 175 179 189 203 208 205 201 204 205 205 212 220 229 239 239 239 236 232 239 251 267 271 247 235 228 227 232 232 279 327 226 208 187 144 213 217 141 159 216 156 128 137 140 146 154 157 161 165 169
2 0 359 357 356 353 351 350 348 347 345 342 337 335 332 326 318 312 312 315 315 306 282 276 288 305 312 280 265 255 126 55 29 18 16 20 36 162 166 174 184 191 203 208 206 205 205 208 209 217 231 237 243 243 237 235 234 233 241 252 257 253 243 228 230 239 230 221 248 247 225 158 150 197 213 156 163 183 133 131 141 143 152 156 159 166 167 170
0 359 358 356 355 354 353 350 348 347 345 341 338 337 335 329 323 321 321 318 313 294 271 280 293 295 280 259 263 262 71 38 5 24 26 52 107 155 170 179 184 194 206 207 207 208 209 214 212 221 245 256 257 253 238 234 249 255 244 253 259 258 252 236 228 222 211 234 237 235 227 161 165 201 219 175 164 160 144 141 143 148 159 158 162 169 169 171
359 358 357 356 354 354 353 350 349 348 344 341 339 340 340 337 338 341 336 331 314 284 284 287 289 281 264 258 268 327 46 1 314 21 46 100 134 163 180 184 188 202 209 207 209 211 215 219 220 225 241 257 263 256 241 238 255 270 265 267 261 255 253 243 236 222 199 228 247 245 232 155 171 204 203 188 172 157 149 146 149 157 163 162 165 168 171 175
359 358 357 356 354 354 353 350 349 349 346 341 342 343 341 342 345 350 347 333 296 296 296 288 281 272 267 263 273 22 15 322 264 315 151 148 169 177 191 192 196 208 210 211 211 212 220 223 227 232 228 237 250 251 250 245 247 256 263 271 261 250 243 235 231 227 208 209 228 238 234 175 195 194 169 191 179 157 161 162 164 166 165 166 167 168 174 176
358 358 358 356 354 353 352 349 349 350 346 342 344 341 335 340 339 349 344 311 304 304 301 286 264 251 266 272 71 34 342 300 207 245 203 183 189 187 203 203 203 212 217 221 215 213 222 226 231 237 240 243 243 275 340 262 243 245 248 255 261 254 239 228 221 222 218 205 201 221 229 206 215 183 167 202 164 165 187 178 174 173 169 169 168 170 176 176
357 357 357 356 354 353 351 348 346 350 346 342 345 338 333 338 323 334 336 324 321 315 344 355 225 243 263 245 86 55 360 282 226 209 202 206 195 187 200 207 209 212 219 230 228 219 221 227 236 243 247 248 258 313 326 254 233 236 239 238 247 253 246 224 210 212 216 203 192 211 220 225 235 180 163 171 144 173 198 186 185 183 173 173 172 170 176 179
357 356 356 355 353 352 350 346 342 348 346 342 343 336 334 335 285 306 341 345 1 51 32 41 207 242 261 160 107 70 102 228 229 206 236 220 202 192 193 200 205 206 214 229 234 228 222 225 231 242 241 239 257 280 271 241 226 225 229 231 229 237 255 231 202 202 212 204 195 211 215 212 237 184 152 146 163 184 192 195 201 199 182 174 176 173 175 179
357 354 355 354 351 349 348 346 341 344 345 342 342 337 338 331 251 272 338 352 3 61 348 236 221 244 277 63 116 151 201 309 319 260 233 219 218 202 181 188 194 196 205 217 224 226 220 222 226 238 240 230 236 247 249 236 221 219 222 232 227 221 243 238 195 194 209 207 198 213 219 198 215 174 147 156 180 190 189 197 199 211 201 177 176 178 174 178
356 354 354 353 351 347 345 345 342 343 344 342 339 330 334 331 253 255 305 320 278 227 250 267 278 253 273 21 166 272 352 356 351 251 200 209 232 200 169 181 184 185 196 204 211 213 206 211 219 228 234 230 224 222 235 233 216 213 216 229 235 227 232 234 203 187 202 211 206 214 219 217 208 164 159 171 185 190 185 192 196 213 211 181 177 181 175 180
355 352 351 351 351 346 342 342 344 346 341 338 332 314 313 315 272 263 278 278 228 230 243 257 277 251 221 53 320 340 357 3 20 212 183 193 223 201 178 182 177 179 193 198 201 203 195 198 211 218 220 222 222 213 218 225 220 217 214 220 232 233 230 231 224 187 197 213 212 215 210 216 220 166 169 186 188 191 183 181 200 213 205 184 184 183 177 182
354 351 350 349 348 344 340 335 343 349 337 337 331 299 285 285 264 255 251 228 215 244 255 220 265 277 52 50 6 351 336 313 277 236 183 183 204 196 183 180 178 183 192 191 191 197 195 197 206 215 215 211 215 216 221 228 232 231 226 225 226 232 232 230 234 200 194 213 215 218 213 207 209 170 176 196 190 195 190 175 200 217 198 181 190 188 181 184
352 351 347 346 344 342 338 330 340 348 334 331 326 291 260 289 258 227 244 233 240 327 328 18 344 317 355 13 359 339 292 253 256 249 163 188 194 189 185 184 186 189 200 197 187 190 197 206 207 213 216 212 214 220 231 239 247 255 248 240 229 231 236 226 234 218 193 213 223 220 223 217 208 186 188 195 187 195 199 189 204 210 189 178 195 194 184 188
351 349 346 344 341 337 336 329 328 344 333 316 321 317 29 356 330 357 334 271 196 326 294 7 337 308 7 351 351 343 300 228 130 78 149 198 195 188 181 188 195 193 208 207 189 186 202 217 215 215 218 219 218 220 230 241 248 256 257 256 239 230 237 224 229 229 197 204 233 224 226 227 217 204 197 187 183 196 204 207 205 194 181 181 192 194 189 190
349 349 346 341 338 334 331 326 317 334 334 309 322 12 34 6 339 331 321 276 189 189 250 252 261 285 46 324 344 335 285 237 141 111 145 212 210 199 177 191 209 200 202 209 197 188 205 226 223 218 219 224 227 221 224 234 242 245 241 255 252 233 238 229 228 234 212 198 226 224 225 232 222 212 203 189 192 203 206 217 206 176 175 185 183 193 196 190
348 348 345 340 337 330 325 324 308 302 319 320 8 28 5 352 332 308 288 279 246 185 210 220 236 320 36 195 20 317 281 263 180 109 125 240 233 219 209 206 218 216 204 206 208 203 209 222 224 224 220 220 228 226 222 227 234 239 236 239 247 242 240 233 223 232 231 223 232 231 227 231 227 216 206 194 198 210 212 223 210 165 167 183 179 192 202 192
347 346 344 341 334 327 325 318 292 275 289 307 27 26 352 335 324 304 275 274 257 184 180 218 249 336 16 349 310 294 294 305 292 69 119 259 260 217 234 232 223 224 214 210 217 222 225 220 216 222 223 220 225 224 220 226 225 229 235 237 242 243 240 243 236 231 234 230 234 248 246 230 222 222 214 189 189 214 221 219 206 167 167 182 183 191 201 195
346 345 343 341 333 327 324 307 287 311 301 275 13 11 345 331 321 299 275 266 240 171 152 177 220 125 27 282 262 285 295 231 250 34 67 276 304 268 240 246 233 230 220 213 221 229 230 229 217 216 218 219 224 222 218 224 230 224 227 234 244 252 250 251 251 245 239 226 214 227 250 242 218 221 223 202 191 204 218 216 203 176 168 182 190 186 196 201
344 344 342 339 333 325 317 306 328 326 297 284 13 351 336 332 310 279 270 258 213 156 154 179 197 133 100 242 268 292 260 198 163 283 239 275 291 275 260 242 222 237 237 220 222 234 230 230 229 221 218 217 220 226 218 216 234 234 216 221 234 250 259 256 251 248 245 239 220 214 231 249 229 216 216 218 210 203 203 204 195 175 163 183 193 173 189 209
343 344 341 337 334 324 317 329 332 312 292 2 359 336 333 333 291 248 252 252 207 151 160 161 139 41 4 332 299 280 272 86 158 196 212 308 256 246 257 248 222 232 250 242 228 225 222 228 227 217 218 221 221 223 215 209 225 241 227 221 225 234 247 252 251 249 246 253 247 226 222 237 245 228 210 210 219 216 204 193 189 185 174 186 194 176 186 203
343 345 340 336 332 308 306 311 311 313 338 345 333 327 334 322 252 223 249 259 150 140 160 108 87 270 269 277 275 282 329 323 240 169 141 267 248 235 243 252 259 248 235 238 238 213 206 223 229 222 217 223 227 221 212 215 225 239 242 241 238 233 236 241 247 251 249 251 252 236 226 231 240 237 222 210 212 219 211 195 193 195 183 186 197 191 188 192
344 344 339 336 324 266 286 285 287 311 342 328 317 326 332 294 232 227 254 268 133 134 64 88 146 216 250 235 219 281 305 257 266 37 195 233 226 243 258 270 282 273 251 243 248 240 217 216 225 230 226 221 229 225 216 224 231 235 243 248 259 258 244 236 239 244 248 248 246 239 235 242 239 223 226 225 214 215 213 201 196 192 185 187 191 192 192 189
343 342 340 334 315 296 284 253 252 304 327 318 312 317 306 253 240 237 233 238 127 123 114 145 160 200 269 242 185 185 258 239 298 295 238 225 206 228 261 278 276 273 265 252 250 254 254 236 220 231 235 222 222 229 226 229 232 230 237 241 238 246 247 241 239 239 243 243 240 238 239 245 246 223 218 233 228 216 210 208 203 189 182 186 186 189 193 191
342 340 338 319 307 315 292 261 301 335 321 311 310 301 276 239 245 253 241 150 112 137 155 127 102 204 273 276 204 144 226 200 293 270 230 208 204 215 232 228 230 246 247 244 241 241 246 245 231 229 237 230 221 226 229 226 226 226 228 231 229 224 228 235 232 228 235 241 237 233 237 242 245 233 215 225 231 223 212 211 207 191 182 186 187 188 189 190
341 336 320 262 300 292 280 303 338 329 312 305 301 283 260 236 234 246 216 154 188 137 126 85 68 107 316 282 251 342 272 198 341 276 260 248 218 206 229 244 248 243 234 229 225 222 227 235 234 226 221 226 226 221 224 220 213 219 221 220 226 219 215 222 219 219 230 239 237 230 230 236 243 243 234 230 228 221 215 209 207 202 193 187 184 183 180 187
340 330 274 237 298 274 275 303 314 309 303 295 282 257 251 254 245 262 66 140 55 52 72 82 66 3 311 267 222 8 267 248 348 282 251 264 254 201 210 314 317 278 264 269 246 223 214 216 223 228 213 210 222 217 213 211 202 211 216 211 218 215 214 220 216 222 232 233 232 229 230 234 238 238 236 239 238 230 218 204 207 213 199 185 184 180 175 180
341 324 260 251 271 264 276 292 294 295 290 275 259 235 239 246 249 330 5 74 66 63 92 45 295 265 270 286 13 1 255 202 15 279 237 223 234 210 178 122 336 288 280 287 270 247 241 219 206 216 207 189 211 223 223 221 210 211 217 218 224 224 224 225 217 221 232 234 222 218 226 233 232 227 226 232 237 245 242 211 204 214 199 186 185 178 176 179
342 328 269 260 264 269 281 285 285 280 267 253 240 233 238 250 272 323 30 61 60 50 113 137 279 258 220 184 73 351 290 143 105 268 249 230 240 227 179 79 33 323 288 272 269 259 260 267 209 207 210 195 202 214 225 234 228 209 211 222 224 223 233 244 248 242 240 243 225 211 220 229 236 237 227 226 223 228 243 233 211 216 201 186 181 176 179 184
339 316 255 256 286 306 300 289 282 261 249 243 236 237 249 6 6 12 21 11 3 352 316 242 242 248 221 177 152 142 207 278 302 282 234 224 286 354 53 37 20 349 325 297 290 277 251 258 261 220 226 220 213 209 211 228 238 215 207 220 224 224 234 244 257 259 250 246 234 216 220 218 227 237 222 222 222 216 225 226 221 224 204 184 178 179 185 189
328 308 261 267 322 322 305 297 275 239 238 246 241 263 360 36 24 13 10 345 342 342 305 275 209 242 267 248 171 128 99 265 253 267 240 180 167 61 70 61 22 349 340 327 297 301 295 272 263 244 239 242 235 220 211 218 233 238 219 208 211 222 232 242 248 247 242 245 239 226 229 216 211 222 209 212 220 216 215 213 212 221 211 189 182 187 193 192
309 294 262 306 340 324 306 299 265 241 241 249 238 12 12 30 32 18 14 350 317 281 276 272 302 22 294 284 241 96 339 294 160 232 264 191 139 75 14 72 60 5 335 323 292 293 320 286 265 253 248 249 243 232 224 220 222 236 247 229 212 217 218 223 239 240 234 239 237 229 235 229 215 209 198 205 211 211 213 212 209 210 209 200 191 189 190 189
288 268 236 23 356 325 302 283 262 251 244 254 256 111 68 50 46 21 1 337 295 278 287 301 10 257 234 293 335 29 14 309 338 331 275 234 98 64 24 350 5 359 342 320 293 291 300 272 260 262 254 252 246 229 227 227 216 223 243 248 238 232 221 214 223 237 239 241 240 228 227 231 227 212 205 208 207 207 209 210 211 209 206 206 205 198 188 184
283 257 48 24 359 323 287 268 252 252 246 287 337 61 73 56 65 37 2 340 302 277 320 351 10 254 249 336 295 262 138 315 302 298 302 337 233 130 81 32 335 330 331 304 277 278 281 267 264 268 256 244 240 223 220 232 222 215 228 234 231 236 236 227 220 222 234 243 244 238 229 228 224 213 217 217 205 203 209 209 210 212 210 209 209 208 197 188
293 273 25 13 351 304 279 263 241 271 261 34 8 38 36 4 24 40 39 351 310 288 343 324 299 294 311 310 265 254 266 277 273 272 266 254 236 197 72 35 350 328 318 286 260 256 265 262 260 262 255 236 231 230 227 231 233 230 225 223 226 226 227 229 221 213 223 234 240 249 247 237 220 200 209 219 213 200 205 210 211 211 216 216 207 205 204 198
286 300 10 359 338 301 285 271 132 317 342 62 36 54 45 331 327 351 37 354 298 171 83 283 272 293 295 298 315 316 288 278 277 278 275 266 272 360 72 41 350 323 308 282 272 329 351 286 268 258 255 258 255 246 235 238 252 257 247 237 239 231 223 230 226 214 216 225 232 246 251 250 243 150 196 219 220 209 198 206 210 208 215 220 211 203 204 202
315 10 28 0 334 303 286 277 111 324 37 56 27 64 43 298 308 331 340 2 304 217 227 280 304 344 308 313 314 295 291 291 276 271 280 272 271 51 56 35 351 307 289 280 281 352 356 261 263 268 261 271 277 271 261 261 271 275 262 249 246 237 228 230 235 231 223 218 217 224 238 242 156 113 204 231 212 206 198 199 209 211 212 213 211 207 202 198
356 339 40 21 345 311 278 27 88 90 72 77 156 90 78 360 5 340 332 16 343 300 310 312 328 346 294 299 290 282 288 287 268 267 279 270 270 46 12 360 346 296 290 341 348 356 323 246 244 257 254 247 249 255 255 249 248 250 243 237 242 245 238 230 233 242 237 233 235 225 218 226 172 130 147 234 207 211 206 194 203 215 218 210 205 207 203 193
304 280 72 49 13 358 10 8 14 101 102 92 87 77 122 109 48 335 317 346 339 315 322 322 311 296 287 287 284 284 281 275 275 273 269 265 239 64 291 308 303 277 305 27 353 316 289 264 247 245 246 234 224 229 243 249 248 246 247 241 234 236 238 233 230 235 234 249 264 250 219 217 213 186 174 198 227 248 249 224 208 207 216 216 205 204 205 194
322 328 357 84 65 49 55 20 4 65 109 113 94 40 5 45 100 79 309 323 358 310 300 295 284 276 281 290 287 287 286 282 284 282 276 275 264 269 295 295 265 269 339 21 324 291 277 268 257 251 252 252 264 289 301 306 300 279 275 263 241 234 237 236 237 241 236 239 253 252 245 231 228 218 201 201 219 231 231 233 227 202 197 221 218 221 227 198
346 11 2 17 56 60 77 50 23 35 43 333 27 51 18 345 31 82 301 308 6 306 293 323 326 294 298 308 293 286 285 273 267 270 270 266 259 255 261 260 254 258 319 298 263 256 259 256 249 251 254 257 270 284 287 288 285 281 285 281 274 270 251 235 232 243 243 239 236 239 246 254 256 239 203 193 215 219 205 206 219 196 165 191 204 170 234 199
12 45 31 337 308 17 44 42 41 58 61 53 67 72 29 4 4 19 263 304 321 304 294 357 322 291 293 300 290 291 292 274 254 254 260 263 267 259 242 246 250 236 225 241 242 242 256 258 253 254 255 256 263 272 275 276 275 276 278 275 280 290 269 242 238 242 241 242 239 233 235 240 246 241 158 114 320 306 64 54 76 132 115 80 55 134 185 181
18 66 51 336 316 36 37 24 29 68 72 63 70 42 358 23 41 12 337 311 291 285 305 307 287 274 286 299 299 298 299 289 276 271 276 278 280 280 271 262 254 233 227 240 244 248 258 261 261 263 265 263 263 269 272 273 271 268 269 268 265 266 260 249 247 246 244 243 242 241 237 234 235 228 59 21 320 354 9 355 77 87 88 70 30 328 197 168
20 41 30 14 64 63 50 45 22 70 84 68 14 40 9 360 27 10 328 298 289 272 287 296 299 304 305 308 294 282 286 294 289 288 287 277 270 269 267 267 266 252 243 243 239 232 236 251 260 266 269 263 259 263 265 266 267 264 261 260 257 253 247 242 243 248 247 242 240 240 238 238 240 231 45 348 295 300 322 308 52 65 53 38 358 344 1 10
36 43 349 320 66 45 341 60 60 22 67 49 14 32 12 9 18 338 301 293 301 293 273 292 304 305 291 279 272 278 290 290 282 279 276 271 270 269 264 263 268 268 260 255 246 229 229 248 260 261 265 261 255 257 262 264 264 261 256 251 250 248 244 239 239 245 246 239 235 235 235 238 241 240 282 325 295 274 278 303 15 33 28 11 338 337 357 352
34 53 343 310 62 62 310 62 84 360 50 43 20 14 353 359 3 321 306 296 286 282 272 287 299 299 284 279 284 298 305 294 288 287 281 274 271 270 269 265 261 260 258 258 259 249 245 254 255 250 257 261 256 254 258 263 259 252 247 244 243 244 246 245 243 243 246 242 232 229 231 234 242 260 299 304 290 288 301 336 353 350 23 21 318 323 347 346
Height
814 811 809 806 804 802 800 798 796 794 792 791 790 789 787 786 785 784 782 780 779 778 777 775 774 773 773 772 770 770 769 770 770 768 767 761 759 760 760 761 761 762 764 764 763 764 763 763 762 761 763 761 762 759 754 754 753 763 778 791 797 794 783 778 775 768 772 770 760 754 745 750 756 746 740 740 743 745 748 747 747 747 746 751 757 762 768 774
814 811 809 806 804 801 800 798 796 794 792 791 789 788 787 786 785 783 782 780 779 777 776 775 773 773 772 771 770 769 769 769 768 764 761 759 759 759 759 759 760 761 762 762 761 760 761 761 760 761 763 762 760 756 756 752 755 766 777 790 792 788 780 767 761 758 765 766 760 755 745 746 750 745 740 746 753 750 754 754 751 755 754 754 757 762 770 774
814 811 808 806 804 801 800 797 795 793 792 791 789 788 786 785 784 783 782 780 778 777 776 775 773 772 772 771 769 769 768 767 765 760 757 758 758 758 758 758 759 760 761 759 758 758 759 758 758 760 762 763 758 755 758 753 755 760 768 787 784 779 775 755 746 747 750 754 757 754 744 746 745 740 741 746 754 753 756 757 756 763 762 759 759 762 769 773
814 811 808 806 803 801 799 797 795 793 791 790 788 787 786 785 784 782 781 779 778 777 775 774 773 772 771 770 769 769 768 767 760 755 756 756 756 756 756 757 757 759 760 758 758 758 756 756 756 758 761 764 757 754 759 754 754 754 758 772 769 773 774 751 741 741 737 741 750 748 745 754 744 737 740 743 756 758 752 751 752 759 761 761 762 764 769 773
814 811 808 805 803 801 799 797 795 793 791 789 788 787 785 784 783 781 780 779 778 776 775 774 773 772 771 770 769 769 769 767 757 751 756 755 753 754 754 755 757 758 759 759 757 756 756 754 756 759 762 763 758 757 759 750 748 754 752 751 755 765 765 747 740 740 736 736 742 743 746 751 742 740 741 745 762 763 751 745 745 750 755 759 762 764 768 771
814 811 808 805 802 800 798 797 795 793 791 789 788 786 785 783 782 780 779 778 777 775 774 773 773 772 771 770 769 769 769 764 754 752 755 753 752 752 752 754 756 758 759 759 755 754 755 754 758 764 763 762 759 757 756 746 745 757 752 740 744 750 750 745 740 741 739 738 743 745 742 740 743 748 744 749 762 760 750 739 739 746 749 755 758 763 768 771
814 811 808 805 802 800 798 796 794 792 791 789 787 785 784 782 780 779 777 777 776 774 773 772 772 771 771 770 769 769 765 757 751 754 754 751 752 750 752 754 755 758 759 757 753 753 755 756 760 762 762 763 759 754 750 744 744 756 754 741 739 739 742 742 739 739 739 740 741 742 744 742 751 753 746 754 758 753 749 737 738 746 747 754 758 762 768 770
814 811 808 805 802 800 797 796 794 792 790 788 786 784 783 781 779 777 776 776 774 773 772 772 772 771 770 770 768 764 758 754 752 754 753 752 751 750 752 754 756 758 757 755 751 752 754 757 759 757 762 761 754 751 747 747 750 753 753 744 738 738 738 736 736 739 738 740 738 740 747 747 752 753 750 757 756 746 743 740 742 747 750 756 760 764 768 770
814 811 807 805 802 799 797 795 793 792 790 787 786 783 781 779 777 776 775 774 773 772 771 771 771 770 771 769 766 761 755 753 753 754 754 754 752 751 753 755 757 757 756 754 750 751 753 756 756 753 758 755 749 749 745 753 756 747 747 743 739 739 735 735 738 739 740 741 742 746 749 748 748 752 753 753 752 744 739 744 746 749 756 759 762 765 766 770
813 810 807 804 801 799 797 795 793 791 789 787 785 782 780 777 775 775 773 773 772 772 771 771 771 770 770 768 765 761 754 753 755 755 755 755 753 753 755 755 757 756 754 752 750 750 750 752 750 746 751 750 748 748 745 753 750 739 742 741 739 739 733 734 737 738 742 743 742 746 751 751 747 753 761 750 744 744 742 748 749 752 758 759 763 764 765 769
813 810 807 804 801 799 797 795 793 791 789 786 784 781 779 776 775 774 773 772 772 771 771 770 770 770 769 766 763 759 754 754 755 755 755 755 754 755 755 755 756 755 753 751 750 749 748 747 744 746 753 752 751 750 745 744 742 739 742 744 742 739 735 734 737 737 741 746 743 741 750 755 752 757 762 750 743 745 747 751 751 754 757 757 762 763 765 767
813 810 807 804 801 798 796 795 793 791 789 786 784 781 778 777 775 774 773 772 772 771 770 770 769 769 768 765 759 756 754 755 755 755 755 755 755 755 754 755 755 754 752 750 750 749 749 746 744 751 753 750 754 754 747 738 739 742 743 752 749 740 740 736 735 735 738 747 740 739 758 767 763 759 755 748 746 748 754 758 754 755 756 757 760 762 765 765
813 810 807 804 801 798 796 794 792 791 788 786 783 780 778 777 775 774 773 772 771 770 769 769 768 769 769 762 755 755 755 755 755 755 754 754 754 754 754 755 754 754 753 750 750 749 750 747 747 751 746 749 754 748 743 738 741 747 745 754 754 749 746 732 730 732 734 740 732 744 773 778 768 759 752 749 750 753 759 760 756 756 756 757 760 762 765 764
813 810 807 804 801 798 796 794 792 790 787 785 782 780 778 777 776 774 773 772 770 769 769 768 768 769 768 759 753 755 755 754 755 753 753 753 753 753 754 754 754 754 753 751 750 749 750 748 747 749 745 748 747 740 747 747 745 750 751 753 755 760 750 725 723 731 736 733 725 745 774 777 767 758 754 751 752 757 761 760 757 756 755 757 759 762 764 762
813 809 806 803 800 798 796 793 791 789 787 784 782 780 778 776 776 774 773 771 770 770 769 768 768 767 764 756 752 754 754 753 752 752 753 752 751 751 752 753 754 753 754 753 752 750 750 749 750 756 752 747 746 752 759 755 748 749 759 761 755 758 749 724 716 725 736 731 723 742 768 777 766 750 750 752 753 757 763 763 759 758 756 758 759 759 763 762
813 810 806 804 801 798 796 794 791 789 786 784 782 779 777 776 775 774 773 771 771 770 769 768 766 765 763 756 751 752 752 751 751 751 752 752 750 749 750 752 752 753 754 753 753 751 749 750 753 755 754 752 755 762 763 760 756 749 756 763 752 752 751 733 718 716 726 730 730 740 757 770 758 741 745 751 754 757 762 763 763 767 761 755 759 758 760 762
813 810 807 804 801 799 797 794 792 789 786 783 781 779 777 776 774 774 773 771 771 769 769 767 762 763 761 752 751 753 751 750 751 751 751 752 750 749 749 751 751 752 753 753 753 752 751 754 757 757 755 756 755 760 770 771 763 752 751 755 748 744 746 740 727 716 719 730 737 738 745 753 745 739 745 748 751 754 761 763 764 773 764 753 756 756 758 761
813 810 807 804 802 799 797 795 792 790 786 783 780 779 777 776 775 773 772 771 771 769 770 766 763 767 764 754 754 755 751 751 752 750 751 751 750 749 749 749 749 752 755 756 755 754 756 756 759 762 760 759 755 757 771 767 754 751 749 751 749 741 740 740 730 720 720 730 737 741 746 749 742 740 744 744 744 749 757 761 766 770 762 754 755 754 757 759
812 809 807 804 801 799 797 795 793 790 787 782 780 778 775 774 774 772 770 768 768 768 768 764 762 766 765 757 754 753 751 752 751 749 749 750 750 749 748 748 749 752 759 761 760 756 757 759 762 766 762 759 755 752 756 750 740 741 739 742 746 742 737 731 722 713 717 731 737 739 745 746 746 748 749 745 741 747 752 757 769 769 756 753 754 752 755 757
811 808 806 803 800 798 796 794 793 790 787 782 778 775 774 775 772 769 767 763 763 763 763 760 758 759 759 756 753 753 751 750 749 747 748 749 748 748 747 748 750 754 757 759 759 753 754 763 764 761 756 751 749 746 744 740 734 734 736 736 737 739 735 724 718 709 709 730 737 734 740 743 742 746 747 742 740 746 749 756 770 766 753 755 756 751 752 754
810 808 804 802 799 797 795 794 792 790 787 783 779 775 777 779 776 775 771 764 760 760 760 759 758 757 757 756 755 753 752 750 747 746 749 748 746 750 751 750 755 759 754 750 751 750 754 763 758 749 746 742 741 742 742 742 739 739 743 741 734 735 731 719 717 709 704 729 739 730 739 742 735 739 737 733 739 745 746 753 762 757 750 751 752 751 751 752
810 806 803 801 798 796 795 793 791 790 787 783 780 779 780 782 781 781 778 771 762 759 760 759 758 756 755 756 755 754 754 753 751 748 748 748 747 751 752 751 757 756 749 747 750 755 761 760 749 740 738 738 738 738 742 745 744 744 745 746 742 732 727 720 715 709 704 725 738 732 739 741 730 732 732 729 735 739 739 744 746 748 750 747 748 752 751 751
809 805 803 800 797 796 794 792 791 789 786 783 781 782 782 783 782 781 780 776 765 759 759 759 759 758 757 757 755 755 755 753 753 750 748 749 748 747 750 752 754 750 747 748 750 758 762 753 741 735 734 739 742 739 742 746 747 747 746 749 747 732 731 733 723 714 708 713 726 728 733 735 726 728 731 728 731 732 735 736 728 733 744 743 745 751 751 751
808 805 802 799 796 795 792 791 789 786 786 783 782 783 784 783 782 781 779 774 765 758 756 758 757 758 759 758 755 756 755 752 753 751 748 749 747 746 749 749 750 750 746 745 746 750 750 739 731 734 736 739 745 743 745 750 750 748 744 746 746 734 732 733 723 717 713 712 720 729 738 736 727 731 731 728 734 734 732 730 723 726 736 740 743 747 748 748
807 805 801 799 796 793 792 791 787 785 785 781 781 784 783 783 782 781 780 774 766 759 757 759 758 758 758 758 756 753 754 753 751 750 748 748 748 749 749 744 746 750 744 741 745 746 742 730 725 734 738 739 745 746 745 749 750 748 743 740 741 736 731 729 725 724 729 730 722 732 757 750 726 728 729 723 731 736 733 729 725 728 734 741 745 745 746 746
807 804 800 798 795 792 791 788 785 785 782 779 783 784 782 783 781 781 781 774 764 760 761 761 759 760 759 757 754 751 757 757 749 748 748 748 748 750 753 745 742 747 740 736 741 741 736 728 726 735 739 739 745 746 741 743 752 750 737 732 736 738 736 733 731 734 743 741 720 721 754 757 730 723 723 719 722 726 731 732 726 726 734 739 741 745 752 750
806 802 800 797 795 794 790 787 787 784 780 780 783 783 782 782 781 781 782 777 765 758 759 759 759 761 759 757 753 755 765 759 749 748 747 749 748 747 755 750 742 744 736 735 745 740 733 733 732 735 739 742 745 745 738 738 752 749 728 726 734 738 742 739 736 739 739 735 724 715 731 750 743 723 711 713 720 721 724 729 726 725 732 735 735 743 753 751
804 801 799 796 795 795 793 791 789 783 782 784 783 784 783 781 781 780 783 783 767 755 756 758 759 759 757 755 753 756 759 755 755 754 746 748 749 748 756 751 744 742 733 741 753 737 728 737 737 734 740 744 740 737 733 736 746 741 724 725 730 734 739 738 739 742 736 740 746 727 720 744 749 723 704 707 718 723 720 722 729 729 728 731 732 736 742 744
803 800 798 796 795 794 794 793 790 785 786 786 784 784 781 780 780 777 783 782 763 754 759 759 760 760 757 755 756 756 754 753 757 753 745 748 748 748 753 747 743 743 735 740 747 734 726 729 730 731 737 740 735 731 730 736 739 732 725 727 731 734 736 737 742 743 743 752 757 737 724 741 743 720 711 712 715 719 715 713 721 724 724 727 728 731 735 738
802 799 798 796 794 794 793 791 790 788 787 786 785 783 780 781 780 781 787 776 756 757 760 757 760 762 759 757 758 759 757 756 754 750 747 748 746 747 747 743 745 748 743 739 740 735 725 719 721 726 728 728 730 730 727 729 729 727 731 734 739 742 740 741 740 741 755 761 751 736 726 736 741 721 712 714 706 703 705 707 708 711 718 724 725 729 732 734
801 799 797 796 795 794 791 787 787 788 787 786 784 781 780 779 778 783 782 762 753 761 760 760 763 761 761 761 759 759 759 758 755 753 751 748 749 750 748 747 749 751 751 747 742 737 731 728 726 722 721 721 728 732 726 723 724 729 737 741 749 752 748 751 748 748 767 766 743 732 724 731 742 724 705 702 693 687 694 701 702 705 713 719 723 725 726 729
800 798 797 796 795 794 791 787 786 788 787 785 784 780 780 783 779 774 765 754 760 766 760 764 766 762 764 763 761 762 760 759 758 756 753 750 749 748 750 753 752 757 759 748 741 738 734 732 726 721 720 721 730 738 733 726 727 735 740 746 759 765 765 771 766 758 765 756 733 726 726 732 734 715 698 693 687 683 685 690 696 701 706 712 717 719 720 724
799 796 795 795 793 792 791 789 787 788 786 785 783 777 779 788 779 761 751 754 764 765 761 766 765 764 767 764 762 764 762 761 760 758 756 754 752 750 753 755 752 759 758 745 740 739 736 730 724 726 725 720 728 739 741 735 733 739 741 747 761 768 777 783 771 760 758 745 727 721 726 733 727 708 695 690 684 677 675 679 687 691 695 704 709 712 716 720
796 794 793 793 792 791 789 788 787 787 786 783 781 779 784 788 771 752 751 758 764 764 764 767 766 766 768 765 765 765 764 764 761 761 758 756 757 753 754 759 758 757 753 750 745 739 743 739 724 724 724 721 726 730 731 729 730 734 731 737 749 752 763 770 760 757 753 739 726 723 728 733 727 706 689 684 681 676 671 670 676 681 684 693 701 706 712 716
794 793 792 791 790 788 787 787 786 785 785 781 779 780 783 779 761 752 759 762 764 766 766 768 769 769 767 766 768 767 767 768 762 761 759 755 754 749 750 759 763 760 758 760 750 738 745 738 714 711 711 713 725 724 720 726 731 727 722 733 742 735 739 745 738 733 733 733 727 722 723 716 705 692 679 678 680 678 677 671 674 680 680 687 698 703 708 710
794 792 792 789 788 786 785 785 784 784 783 779 779 778 773 770 764 763 767 768 768 770 769 768 768 769 766 763 768 770 769 768 765 763 759 756 756 754 758 766 767 766 766 766 757 746 751 740 714 713 713 708 716 718 716 727 731 723 724 734 729 718 725 739 739 724 723 737 727 712 715 708 700 696 681 679 683 680 681 680 680 681 677 685 697 700 703 705
794 792 790 787 786 785 784 783 782 782 779 775 779 777 768 768 771 771 772 771 771 772 775 773 768 769 768 762 764 770 772 768 766 766 761 759 763 764 767 771 770 771 769 770 764 751 754 749 724 720 726 715 708 711 713 716 720 722 723 721 715 716 723 733 745 740 737 746 729 709 712 711 714 712 689 683 691 686 682 683 684 683 679 685 693 697 699 698
795 792 788 785 785 784 782 782 781 778 776 773 775 774 769 772 775 773 774 774 773 774 777 774 769 771 774 769 765 769 775 771 766 770 765 760 768 770 769 772 773 772 770 772 769 755 758 763 739 723 730 723 708 714 723 716 712 717 713 704 711 731 737 737 747 750 748 751 736 718 713 707 708 707 693 691 694 689 686 683 683 685 683 684 687 690 692 692
794 790 784 783 784 782 781 781 778 774 773 773 773 772 772 776 778 777 776 776 776 777 775 771 771 776 775 775 774 772 777 778 772 773 769 764 771 774 772 775 776 774 772 773 772 761 760 770 758 731 725 728 720 723 736 730 715 713 712 707 709 719 726 730 735 738 742 747 740 728 722 710 696 687 687 690 687 685 688 685 682 682 680 681 681 681 684 689
790 785 782 782 783 782 780 779 776 772 771 773 772 772 774 777 779 780 779 779 778 778 779 776 777 779 774 774 779 775 777 781 778 777 775 770 774 776 775 779 780 778 775 773 773 768 764 771 770 746 729 733 733 727 731 732 722 719 721 720 719 717 716 718 720 720 729 740 739 733 728 710 683 672 677 679 674 676 680 680 680 677 673 673 674 674 677 681
788 784 782 782 782 782 779 776 774 770 768 772 774 775 779 781 782 782 781 782 781 778 781 782 781 782 780 777 776 773 775 777 775 777 775 769 770 775 778 781 783 782 780 776 771 769 769 771 769 759 744 740 735 722 719 722 720 719 717 715 718 720 721 728 727 715 715 726 728 729 731 705 667 658 667 668 667 667 669 673 675 673 670 667 666 668 670 673
786 784 784 783 781 781 777 774 774 770 770 778 780 781 787 787 785 785 783 783 783 781 783 784 780 782 783 780 778 777 778 778 776 776 774 768 769 775 781 783 784 784 783 779 769 765 772 774 771 765 753 741 730 719 716 718 716 715 713 712 714 714 716 730 734 718 712 718 714 719 729 703 660 652 662 664 663 661 661 665 668 668 667 664 661 662 664 666
783 782 783 783 782 779 778 779 778 777 780 785 785 785 790 789 785 786 784 785 786 783 783 781 779 783 786 783 784 785 783 782 781 779 776 774 772 776 781 784 785 784 783 779 772 771 777 779 778 772 758 745 736 726 722 721 725 728 723 718 718 712 708 714 716 710 710 713 712 724 736 709 668 659 665 662 660 660 660 662 663 664 662 659 659 659 660 663
787 784 781 782 782 777 778 780 780 783 787 788 786 788 792 791 790 790 787 788 789 786 785 784 783 788 789 786 787 788 787 789 786 781 781 780 778 780 782 784 789 787 782 783 783 785 785 780 780 781 776 765 756 748 740 732 731 732 724 719 718 712 708 708 707 708 712 709 708 721 731 708 674 666 670 667 664 664 661 659 660 662 660 657 657 657 658 661
790 787 782 781 780 777 778 778 776 784 791 791 791 792 791 793 798 799 793 791 791 790 791 791 789 790 789 787 790 790 789 792 790 785 785 784 782 783 782 786 792 788 785 789 791 790 790 784 781 785 786 777 767 765 759 747 739 733 724 720 718 713 712 710 710 718 723 718 714 714 713 698 675 668 675 676 674 672 667 661 658 659 658 656 655 655 656 657
788 788 785 780 779 778 782 782 779 784 790 793 796 796 796 797 798 800 799 796 795 794 792 791 791 793 793 793 798 799 795 794 796 794 793 792 789 787 786 789 791 788 789 794 794 791 792 789 783 784 782 772 764 765 763 758 757 751 740 729 719 714 711 710 718 725 721 722 724 711 700 698 686 676 677 679 679 677 673 667 662 660 660 658 656 657 657 655
791 794 793 791 789 785 786 788 788 790 791 794 800 803 804 803 800 800 802 799 798 797 794 793 794 797 801 803 806 807 803 801 802 803 803 800 795 792 790 791 790 790 793 796 794 792 794 791 784 781 780 771 765 765 762 761 762 758 749 740 729 722 716 715 725 726 718 726 730 708 696 705 700 683 678 678 678 674 669 667 664 661 661 661 659 661 663 660
797 801 800 802 802 795 793 795 795 796 797 798 802 805 805 806 806 806 804 800 799 798 798 800 802 803 806 807 807 807 806 804 804 805 805 802 797 793 791 790 789 789 792 793 789 787 792 791 781 776 775 770 765 763 760 759 759 754 751 747 741 735 727 723 725 723 719 728 727 707 701 707 699 686 684 683 679 675 670 667 664 661 662 665 666 667 667 666
804 806 803 803 805 803 802 802 798 798 802 804 805 806 805 805 807 808 806 805 805 802 801 806 807 805 803 803 805 807 808 807 805 804 803 802 801 798 796 793 788 784 788 790 786 786 792 791 782 777 775 769 765 764 760 759 758 755 752 748 743 740 735 731 729 723 719 720 715 707 707 705 694 689 693 691 683 678 675 670 668 669 671 674 676 673 668 667
814 815 812 808 807 808 807 804 802 802 803 806 808 807 806 807 809 810 807 808 808 805 805 809 807 804 803 803 806 807 805 806 807 805 805 806 805 802 799 796 789 785 786 786 786 788 794 793 783 779 779 773 766 762 760 759 759 756 751 745 741 739 737 734 731 726 723 719 712 708 710 706 693 687 692 692 685 683 682 678 676 678 680 683 683 680 676 676
821 821 821 816 813 814 811 806 806 807 805 807 810 810 811 811 813 814 810 806 807 807 808 810 807 804 803 803 805 804 801 801 803 801 800 802 801 798 795 792 791 791 788 785 785 786 790 790 784 782 785 778 765 762 761 757 755 753 749 743 740 738 736 733 729 727 724 720 716 715 716 710 696 688 692 694 689 689 688 684 685 687 689 693 694 690 688 687
824 823 822 820 816 815 813 808 807 810 811 813 814 815 815 814 813 815 813 807 805 805 806 807 808 807 805 805 804 802 799 798 798 795 793 793 792 791 790 787 786 788 788 786 786 784 784 786 785 787 790 780 765 760 757 756 759 754 742 736 734 732 731 729 725 720 717 715 716 717 713 704 695 695 700 700 696 696 694 690 692 693 694 700 702 698 695 691